| time (UTC) | temp F | wind direction | speed knots | gust knots | rain 1hr in | rain 24hr in | rain mn in | humidity % | barometer mb |
| 20260507193212 | 70 | 187 | 2.6 | 7.8 | 0.00 | 0.00 | 0.00 | 27 | 1008.7 |
| 20260507192712 | 70 | 171 | 2.6 | 5.2 | 0.00 | 0.00 | 0.00 | 26 | 1008.8 |
| 20260507192212 | 70 | 207 | 2.6 | 6.1 | 0.00 | 0.00 | 0.00 | 25 | 1008.9 |
| 20260507191712 | 71 | 185 | 1.7 | 5.2 | 0.00 | 0.00 | 0.00 | 26 | 1008.9 |
| 20260507191212 | 70 | 161 | 2.6 | 7.0 | 0.00 | 0.00 | 0.00 | 26 | 1009.1 |
| 20260507190712 | 70 | 186 | 1.7 | 6.1 | 0.00 | 0.00 | 0.00 | 27 | 1009.1 |
| 20260507190212 | 70 | 204 | 1.7 | 2.6 | 0.00 | 0.00 | 0.00 | 28 | 1009.2 |
| 20260507185712 | 69 | 212 | 1.7 | 3.5 | 0.00 | 0.00 | 0.00 | 28 | 1009.3 |
| 20260507185212 | 69 | 217 | 1.7 | 5.2 | 0.00 | 0.00 | 0.00 | 28 | 1009.4 |
| 20260507184712 | 68 | 222 | 2.6 | 5.2 | 0.00 | 0.00 | 0.00 | 28 | 1009.6 |
| 20260507184212 | 67 | 184 | 2.6 | 6.1 | 0.00 | 0.00 | 0.00 | 29 | 1009.6 |
| 20260507183712 | 67 | 224 | 2.6 | 5.2 | 0.00 | 0.00 | 0.00 | 29 | 1009.6 |
| 20260507183212 | 67 | 204 | 3.5 | 10.4 | 0.00 | 0.00 | 0.00 | 28 | 1009.8 |
| 20260507182712 | 67 | 172 | 2.6 | 7.8 | 0.00 | 0.00 | 0.00 | 28 | 1009.8 |
| 20260507182212 | 66 | 198 | 2.6 | 6.1 | 0.00 | 0.00 | 0.00 | 29 | 1009.9 |
| 20260507181712 | 65 | 162 | 3.5 | 7.0 | 0.00 | 0.00 | 0.00 | 31 | 1009.9 |
| 20260507181212 | 64 | 193 | 3.5 | 6.1 | 0.00 | 0.00 | 0.00 | 30 | 1010.1 |
| 20260507180712 | 63 | 188 | 2.6 | 6.1 | 0.00 | 0.00 | 0.00 | 31 | 1010.1 |
| 20260507180212 | 63 | 202 | 2.6 | 6.1 | 0.00 | 0.00 | 0.00 | 29 | 1010.2 |
| 20260507175712 | 63 | 195 | 3.5 | 6.1 | 0.00 | 0.00 | 0.00 | 30 | 1010.1 |
| 20260507175212 | 63 | 217 | 2.6 | 6.1 | 0.00 | 0.00 | 0.00 | 30 | 1010.2 |
| 20260507174712 | 63 | 189 | 3.5 | 5.2 | 0.00 | 0.00 | 0.00 | 30 | 1010.2 |
| 20260507174212 | 63 | 184 | 3.5 | 6.1 | 0.00 | 0.00 | 0.00 | 29 | 1010.3 |
| 20260507173712 | 64 | 218 | 4.3 | 7.0 | 0.00 | 0.00 | 0.00 | 30 | 1010.3 |
| 20260507173212 | 64 | 198 | 3.5 | 7.8 | 0.00 | 0.00 | 0.00 | 31 | 1010.3 |
| 20260507172712 | 64 | 189 | 3.5 | 7.0 | 0.00 | 0.00 | 0.00 | 31 | 1010.4 |
| 20260507172212 | 63 | 213 | 3.5 | 7.0 | 0.00 | 0.00 | 0.00 | 31 | 1010.4 |
| 20260507171712 | 63 | 209 | 3.5 | 7.8 | 0.00 | 0.00 | 0.00 | 31 | 1010.5 |
| 20260507171212 | 63 | 220 | 3.5 | 7.0 | 0.00 | 0.00 | 0.00 | 31 | 1010.7 |
| 20260507170712 | 62 | 167 | 3.5 | 7.8 | 0.00 | 0.00 | 0.00 | 31 | 1010.6 |
| 20260507170212 | 61 | 211 | 4.3 | 9.6 | 0.00 | 0.00 | 0.00 | 31 | 1010.7 |
| 20260507165712 | 60 | 194 | 4.3 | 7.8 | 0.00 | 0.00 | 0.00 | 31 | 1010.6 |
| 20260507165212 | 59 | 209 | 4.3 | 9.6 | 0.00 | 0.00 | 0.00 | 31 | 1010.8 |
| 20260507164712 | 59 | 215 | 4.3 | 7.8 | 0.00 | 0.00 | 0.00 | 31 | 1010.9 |
| 20260507164212 | 59 | 190 | 4.3 | 8.7 | 0.00 | 0.00 | 0.00 | 33 | 1010.9 |
| 20260507163712 | 58 | 215 | 4.3 | 8.7 | 0.00 | 0.00 | 0.00 | 32 | 1011.0 |
| 20260507163212 | 58 | 160 | 4.3 | 10.4 | 0.00 | 0.00 | 0.00 | 30 | 1010.9 |
| 20260507162712 | 59 | 207 | 3.5 | 7.0 | 0.00 | 0.00 | 0.00 | 30 | 1010.9 |
| 20260507162212 | 59 | 217 | 4.3 | 7.8 | 0.00 | 0.00 | 0.00 | 31 | 1010.8 |
| 20260507161712 | 59 | 208 | 4.3 | 8.7 | 0.00 | 0.00 | 0.00 | 30 | 1011.0 |
| 20260507161212 | 59 | 217 | 3.5 | 7.0 | 0.00 | 0.00 | 0.00 | 31 | 1011.0 |
| 20260507160712 | 58 | 191 | 3.5 | 10.4 | 0.00 | 0.00 | 0.00 | 31 | 1011.0 |
| 20260507160212 | 58 | 194 | 4.3 | 7.0 | 0.00 | 0.00 | 0.00 | 31 | 1010.9 |
| 20260507155712 | 57 | 203 | 4.3 | 10.4 | 0.00 | 0.00 | 0.00 | 32 | 1010.8 |
| 20260507155212 | 56 | 201 | 4.3 | 8.7 | 0.00 | 0.00 | 0.00 | 33 | 1010.7 |
| 20260507154712 | 56 | 200 | 4.3 | 10.4 | 0.00 | 0.00 | 0.00 | 32 | 1010.9 |
| 20260507154212 | 56 | 213 | 4.3 | 9.6 | 0.00 | 0.00 | 0.00 | 32 | 1011.0 |
| 20260507153712 | 56 | 207 | 4.3 | 7.0 | 0.00 | 0.00 | 0.00 | 32 | 1011.0 |
| 20260507153212 | 56 | 215 | 4.3 | 8.7 | 0.00 | 0.00 | 0.00 | 31 | 1011.2 |
| 20260507152712 | 56 | 190 | 4.3 | 11.3 | 0.00 | 0.00 | 0.00 | 32 | 1011.0 |
| 20260507152212 | 56 | 205 | 4.3 | 8.7 | 0.00 | 0.00 | 0.00 | 30 | 1010.8 |
| 20260507151712 | 57 | 213 | 4.3 | 10.4 | 0.00 | 0.00 | 0.00 | 30 | 1010.9 |
| 20260507151212 | 57 | 200 | 3.5 | 7.0 | 0.00 | 0.00 | 0.00 | 28 | 1010.9 |
| 20260507150712 | 58 | 204 | 3.5 | 8.7 | 0.00 | 0.00 | 0.00 | 28 | 1011.0 |
| 20260507150212 | 58 | 217 | 3.5 | 8.7 | 0.00 | 0.00 | 0.00 | 28 | 1010.9 |
| 20260507145712 | 58 | 263 | 2.6 | 6.1 | 0.00 | 0.00 | 0.00 | 28 | 1011.1 |
| 20260507145212 | 57 | 216 | 2.6 | 6.1 | 0.00 | 0.00 | 0.00 | 29 | 1011.1 |
| 20260507144712 | 57 | 185 | 2.6 | 6.1 | 0.00 | 0.00 | 0.00 | 29 | 1010.9 |
| 20260507144212 | 57 | 260 | 1.7 | 7.0 | 0.00 | 0.00 | 0.00 | 30 | 1011.0 |
| 20260507143712 | 56 | 284 | 2.6 | 5.2 | 0.00 | 0.00 | 0.00 | 31 | 1011.1 |
| 20260507143212 | 55 | 290 | 1.7 | 8.7 | 0.00 | 0.00 | 0.00 | 31 | 1011.4 |
| 20260507142712 | 55 | 262 | 1.7 | 3.5 | 0.00 | 0.00 | 0.00 | 32 | 1011.2 |
| 20260507142212 | 55 | 284 | 2.6 | 8.7 | 0.00 | 0.00 | 0.00 | 33 | 1011.3 |
| 20260507141712 | 55 | 274 | 1.7 | 6.1 | 0.00 | 0.00 | 0.00 | 34 | 1011.3 |
| 20260507141213 | 54 | 277 | 0.9 | 4.3 | 0.00 | 0.00 | 0.00 | 34 | 1011.3 |
| 20260507140712 | 54 | 277 | 0.9 | 4.3 | 0.00 | 0.00 | 0.00 | 35 | 1011.4 |
| 20260507140212 | 54 | 277 | 0.9 | 3.5 | 0.00 | 0.00 | 0.00 | 35 | 1011.4 |
| 20260507135712 | 54 | 277 | 0.9 | 7.8 | 0.00 | 0.00 | 0.00 | 35 | 1011.3 |
| 20260507135212 | 53 | 276 | 0.9 | 1.7 | 0.00 | 0.00 | 0.00 | 37 | 1011.4 |
| 20260507134712 | 53 | 276 | 1.7 | 6.1 | 0.00 | 0.00 | 0.00 | 36 | 1011.3 |
| 20260507134212 | 53 | 273 | 1.7 | 9.6 | 0.00 | 0.00 | 0.00 | 36 | 1011.4 |
| 20260507133712 | 52 | 286 | 1.7 | 9.6 | 0.00 | 0.00 | 0.00 | 36 | 1011.3 |
| 20260507133212 | 51 | 173 | 0.9 | 5.2 | 0.00 | 0.00 | 0.00 | 38 | 1011.4 |
| 20260507132712 | 50 | 188 | 0.0 | 2.6 | 0.00 | 0.00 | 0.00 | 41 | 1011.4 |
| 20260507132213 | 49 | 189 | 0.0 | 0.9 | 0.00 | 0.00 | 0.00 | 42 | 1011.5 |
| 20260507131712 | 49 | 189 | 0.0 | 2.6 | 0.00 | 0.00 | 0.00 | 42 | 1011.4 |
| 20260507131212 | 49 | 188 | 0.0 | 0.9 | 0.00 | 0.00 | 0.00 | 41 | 1011.2 |
| 20260507130712 | 49 | 188 | 0.0 | 1.7 | 0.00 | 0.00 | 0.00 | 41 | 1011.2 |
| 20260507130213 | 49 | 186 | 0.9 | 1.7 | 0.00 | 0.00 | 0.00 | 40 | 1011.2 |
| 20260507125712 | 49 | 186 | 0.9 | 4.3 | 0.00 | 0.00 | 0.00 | 38 | 1011.3 |
| 20260507125213 | 49 | 172 | 0.9 | 1.7 | 0.00 | 0.00 | 0.00 | 40 | 1011.5 |
| 20260507124713 | 49 | 172 | 0.9 | 3.5 | 0.00 | 0.00 | 0.00 | 39 | 1011.3 |
| 20260507124213 | 49 | 169 | 0.9 | 7.8 | 0.00 | 0.00 | 0.00 | 38 | 1011.4 |
| 20260507123713 | 49 | 158 | 0.0 | 2.6 | 0.00 | 0.00 | 0.00 | 40 | 1011.5 |
| 20260507123213 | 49 | 156 | 1.7 | 1.7 | 0.00 | 0.00 | 0.00 | 40 | 1011.5 |
| 20260507122713 | 48 | 156 | 1.7 | 10.4 | 0.00 | 0.00 | 0.00 | 39 | 1011.3 |
| 20260507122213 | 47 | 278 | 0.9 | 2.6 | 0.00 | 0.00 | 0.00 | 41 | 1011.2 |
| 20260507121713 | 47 | 278 | 0.9 | 2.6 | 0.00 | 0.00 | 0.00 | 41 | 1011.3 |
| 20260507121213 | 47 | 278 | 0.9 | 2.6 | 0.00 | 0.00 | 0.00 | 42 | 1011.3 |
| 20260507120713 | 48 | 278 | 0.9 | 1.7 | 0.00 | 0.00 | 0.00 | 41 | 1011.2 |
| 20260507120213 | 48 | 278 | 0.9 | 2.6 | 0.00 | 0.00 | 0.00 | 40 | 1011.1 |
| 20260507115713 | 48 | 278 | 0.0 | 1.7 | 0.00 | 0.00 | 0.00 | 39 | 1011.2 |
| 20260507115213 | 49 | 278 | 0.0 | 0.0 | 0.00 | 0.00 | 0.00 | 40 | 1011.2 |
| 20260507114713 | 49 | 278 | 0.0 | 0.0 | 0.00 | 0.00 | 0.00 | 38 | 1011.3 |
| 20260507114213 | 50 | 278 | 0.0 | 1.7 | 0.00 | 0.00 | 0.00 | 37 | 1011.3 |
| 20260507113713 | 50 | 278 | 0.0 | 1.7 | 0.00 | 0.00 | 0.00 | 37 | 1011.4 |
| 20260507113213 | 51 | 278 | 0.9 | 1.7 | 0.00 | 0.00 | 0.00 | 36 | 1011.6 |
| 20260507112713 | 51 | 278 | 0.9 | 1.7 | 0.00 | 0.00 | 0.00 | 35 | 1011.6 |
| 20260507112213 | 52 | 278 | 0.9 | 1.7 | 0.00 | 0.00 | 0.00 | 34 | 1011.7 |
| 20260507111713 | 53 | 278 | 1.7 | 2.6 | 0.00 | 0.00 | 0.00 | 34 | 1011.6 |
| 20260507111213 | 54 | 278 | 2.6 | 5.2 | 0.00 | 0.00 | 0.00 | 31 | 1011.6 |
| 20260507110713 | 54 | 278 | 2.6 | 9.6 | 0.00 | 0.00 | 0.00 | 30 | 1011.5 |
| 20260507110213 | 54 | 215 | 1.7 | 6.1 | 0.00 | 0.00 | 0.00 | 30 | 1011.5 |
| 20260507105713 | 54 | 220 | 1.7 | 6.1 | 0.00 | 0.00 | 0.00 | 30 | 1011.7 |
| 20260507105213 | 53 | 205 | 2.6 | 7.0 | 0.00 | 0.00 | 0.00 | 30 | 1011.7 |
| 20260507104713 | 53 | 222 | 2.6 | 6.1 | 0.00 | 0.00 | 0.00 | 30 | 1011.9 |
| 20260507104213 | 53 | 229 | 2.6 | 6.1 | 0.00 | 0.00 | 0.00 | 31 | 1011.7 |
| 20260507103713 | 53 | 235 | 1.7 | 7.0 | 0.00 | 0.00 | 0.00 | 31 | 1011.9 |
| 20260507103213 | 53 | 289 | 1.7 | 11.3 | 0.00 | 0.00 | 0.00 | 31 | 1011.9 |
| 20260507102713 | 52 | 254 | 1.7 | 4.3 | 0.00 | 0.00 | 0.00 | 32 | 1011.9 |
| 20260507102213 | 52 | 251 | 1.7 | 6.1 | 0.00 | 0.00 | 0.00 | 32 | 1012.0 |
| 20260507101713 | 52 | 257 | 1.7 | 4.3 | 0.00 | 0.00 | 0.00 | 34 | 1012.0 |
| 20260507101213 | 51 | 258 | 2.6 | 7.8 | 0.00 | 0.00 | 0.00 | 34 | 1011.9 |
| 20260507100713 | 51 | 254 | 2.6 | 6.1 | 0.00 | 0.00 | 0.00 | 35 | 1011.9 |
| 20260507100213 | 51 | 257 | 2.6 | 9.6 | 0.00 | 0.00 | 0.00 | 36 | 1012.1 |
| 20260507095713 | 50 | 290 | 2.6 | 6.1 | 0.00 | 0.00 | 0.00 | 37 | 1012.0 |
| 20260507095213 | 49 | 49 | 1.7 | 7.0 | 0.00 | 0.00 | 0.00 | 39 | 1012.2 |
| 20260507094713 | 49 | 182 | 0.9 | 2.6 | 0.00 | 0.00 | 0.00 | 39 | 1012.3 |
| 20260507094213 | 49 | 183 | 0.0 | 1.7 | 0.00 | 0.00 | 0.00 | 38 | 1012.5 |
| 20260507093713 | 49 | 183 | 0.0 | 1.7 | 0.00 | 0.00 | 0.00 | 39 | 1012.5 |
| 20260507093213 | 50 | 183 | 0.9 | 1.7 | 0.00 | 0.00 | 0.00 | 38 | 1012.6 |
| 20260507092713 | 50 | 183 | 0.9 | 2.6 | 0.00 | 0.00 | 0.00 | 38 | 1012.6 |
| 20260507092213 | 50 | 183 | 0.9 | 2.6 | 0.00 | 0.00 | 0.00 | 36 | 1012.6 |
| 20260507091713 | 50 | 184 | 0.9 | 2.6 | 0.00 | 0.00 | 0.00 | 37 | 1012.7 |
| 20260507091213 | 50 | 184 | 0.9 | 1.7 | 0.00 | 0.00 | 0.00 | 37 | 1012.7 |
| 20260507090713 | 50 | 184 | 0.9 | 0.0 | 0.00 | 0.02 | 0.00 | 36 | 1012.8 |
| 20260507090213 | 51 | 184 | 0.9 | 1.7 | 0.00 | 0.02 | 0.00 | 36 | 1012.9 |
| 20260507085713 | 51 | 182 | 0.9 | 2.6 | 0.00 | 0.02 | 0.00 | 36 | 1012.8 |
| 20260507085213 | 51 | 182 | 1.7 | 4.3 | 0.00 | 0.02 | 0.00 | 36 | 1012.8 |
| 20260507084713 | 51 | 0 | 1.7 | 5.2 | 0.00 | 0.02 | 0.00 | 35 | 1012.8 |
| 20260507084213 | 51 | 9 | 0.9 | 2.6 | 0.00 | 0.02 | 0.00 | 37 | 1013.0 |
| 20260507083713 | 51 | 9 | 0.9 | 2.6 | 0.00 | 0.02 | 0.00 | 36 | 1012.9 |
| 20260507083213 | 51 | 9 | 0.9 | 1.7 | 0.00 | 0.02 | 0.00 | 36 | 1013.2 |
| 20260507082713 | 51 | 9 | 1.7 | 3.5 | 0.00 | 0.02 | 0.00 | 36 | 1013.1 |
| 20260507082213 | 50 | 9 | 1.7 | 3.5 | 0.00 | 0.02 | 0.00 | 37 | 1013.1 |
| 20260507081713 | 50 | 23 | 1.7 | 3.5 | 0.00 | 0.02 | 0.00 | 35 | 1013.0 |
| 20260507081213 | 50 | 13 | 0.9 | 3.5 | 0.00 | 0.02 | 0.00 | 38 | 1013.1 |
| 20260507080713 | 49 | 11 | 0.9 | 4.3 | 0.00 | 0.09 | 0.00 | 39 | 1013.3 |
| 20260507080213 | 49 | 355 | 0.9 | 6.1 | 0.00 | 0.09 | 0.00 | 40 | 1013.2 |
| 20260507075713 | 49 | 38 | 0.9 | 1.7 | 0.00 | 0.09 | 0.00 | 40 | 1013.2 |
| 20260507075213 | 49 | 38 | 0.9 | 4.3 | 0.00 | 0.09 | 0.00 | 40 | 1013.3 |
| 20260507074713 | 49 | 38 | 0.0 | 0.0 | 0.00 | 0.09 | 0.00 | 40 | 1013.3 |
| 20260507074213 | 49 | 38 | 0.9 | 1.7 | 0.00 | 0.09 | 0.00 | 40 | 1013.4 |
| 20260507073713 | 49 | 38 | 0.0 | 2.6 | 0.00 | 0.09 | 0.00 | 40 | 1013.3 |
| 20260507073213 | 49 | 38 | 0.0 | 1.7 | 0.00 | 0.09 | 0.00 | 40 | 1013.4 |
| 20260507072713 | 49 | 38 | 0.0 | 1.7 | 0.00 | 0.09 | 0.00 | 41 | 1013.6 |
| 20260507072213 | 49 | 38 | 0.0 | 0.9 | 0.00 | 0.09 | 0.00 | 41 | 1013.6 |
| 20260507071713 | 48 | 38 | 0.0 | 1.7 | 0.00 | 0.09 | 0.00 | 41 | 1013.7 |
| 20260507071213 | 48 | 38 | 0.0 | 0.0 | 0.00 | 0.09 | 0.00 | 42 | 1013.7 |
| 20260507070713 | 48 | 38 | 0.0 | 0.0 | 0.00 | 0.09 | 0.00 | 41 | 1013.8 |
| 20260507070213 | 48 | 38 | 0.0 | 0.0 | 0.00 | 0.09 | 0.00 | 41 | 1013.8 |
| 20260507065713 | 47 | 38 | 0.0 | 0.0 | 0.00 | 0.09 | 0.00 | 42 | 1013.7 |
| 20260507065213 | 47 | 38 | 0.0 | 0.0 | 0.00 | 0.09 | 0.00 | 41 | 1013.7 |
| 20260507064713 | 48 | 38 | 0.0 | 0.0 | 0.00 | 0.09 | 0.00 | 41 | 1013.7 |
| 20260507064213 | 48 | 38 | 0.0 | 0.0 | 0.00 | 0.09 | 0.00 | 41 | 1013.7 |
| 20260507063713 | 48 | 38 | 0.0 | 0.0 | 0.00 | 0.09 | 0.00 | 41 | 1013.7 |
| 20260507063213 | 48 | 38 | 0.0 | 0.0 | 0.00 | 0.09 | 0.00 | 40 | 1013.7 |
| 20260507062713 | 48 | 38 | 0.0 | 0.9 | 0.00 | 0.09 | 0.00 | 40 | 1013.7 |
| 20260507062213 | 48 | 38 | 0.9 | 1.7 | 0.00 | 0.09 | 0.00 | 40 | 1013.7 |
| 20260507061713 | 48 | 38 | 0.0 | 2.6 | 0.00 | 0.09 | 0.00 | 41 | 1013.6 |
| 20260507061213 | 48 | 38 | 0.0 | 0.0 | 0.00 | 0.09 | 0.00 | 39 | 1013.6 |
| 20260507060713 | 48 | 38 | 0.0 | 0.0 | 0.00 | 0.09 | 0.00 | 40 | 1013.6 |
| 20260507060213 | 48 | 38 | 0.0 | 1.7 | 0.00 | 0.09 | 0.00 | 41 | 1013.6 |
| 20260507055713 | 48 | 38 | 0.0 | 0.9 | 0.00 | 0.09 | 0.09 | 40 | 1013.5 |
| 20260507055213 | 48 | 38 | 0.0 | 2.6 | 0.00 | 0.09 | 0.09 | 41 | 1013.5 |
| 20260507054713 | 48 | 38 | 0.0 | 0.0 | 0.00 | 0.09 | 0.09 | 41 | 1013.5 |
| 20260507054213 | 49 | 38 | 0.0 | 0.0 | 0.00 | 0.09 | 0.09 | 40 | 1013.4 |
| 20260507053713 | 49 | 38 | 0.9 | 1.7 | 0.00 | 0.09 | 0.09 | 40 | 1013.4 |
| 20260507053213 | 49 | 38 | 0.9 | 2.6 | 0.00 | 0.09 | 0.09 | 39 | 1013.5 |
| 20260507052713 | 50 | 38 | 0.0 | 1.7 | 0.00 | 0.09 | 0.09 | 38 | 1013.4 |
| 20260507052213 | 50 | 38 | 0.0 | 0.0 | 0.00 | 0.09 | 0.09 | 38 | 1013.4 |
| 20260507051713 | 50 | 38 | 0.0 | 0.0 | 0.00 | 0.09 | 0.09 | 37 | 1013.4 |
| 20260507051213 | 50 | 38 | 0.0 | 0.9 | 0.00 | 0.09 | 0.09 | 37 | 1013.5 |
| 20260507050713 | 50 | 38 | 0.0 | 0.0 | 0.00 | 0.09 | 0.09 | 36 | 1013.5 |
| 20260507050213 | 50 | 38 | 0.0 | 0.0 | 0.00 | 0.09 | 0.09 | 36 | 1013.6 |
| 20260507045713 | 50 | 38 | 0.0 | 0.0 | 0.00 | 0.09 | 0.09 | 37 | 1013.7 |
| 20260507045213 | 50 | 38 | 0.0 | 0.0 | 0.00 | 0.09 | 0.09 | 37 | 1013.7 |
| 20260507044713 | 50 | 38 | 0.0 | 0.0 | 0.00 | 0.09 | 0.09 | 37 | 1013.7 |
| 20260507044213 | 50 | 38 | 0.0 | 0.0 | 0.00 | 0.09 | 0.09 | 38 | 1013.7 |
| 20260507043713 | 50 | 38 | 0.0 | 0.0 | 0.00 | 0.09 | 0.09 | 38 | 1013.6 |
| 20260507043213 | 50 | 38 | 0.0 | 0.0 | 0.00 | 0.09 | 0.09 | 36 | 1013.6 |
| 20260507042713 | 50 | 38 | 0.0 | 0.0 | 0.00 | 0.09 | 0.09 | 37 | 1013.5 |
| 20260507042213 | 50 | 38 | 0.0 | 0.0 | 0.00 | 0.09 | 0.09 | 36 | 1013.5 |
| 20260507041713 | 50 | 38 | 0.0 | 0.0 | 0.00 | 0.09 | 0.09 | 35 | 1013.5 |
| 20260507041213 | 50 | 38 | 0.0 | 0.0 | 0.00 | 0.09 | 0.09 | 35 | 1013.5 |
| 20260507040713 | 50 | 38 | 0.0 | 0.0 | 0.00 | 0.09 | 0.09 | 35 | 1013.6 |
| 20260507040214 | 50 | 38 | 0.0 | 0.0 | 0.00 | 0.09 | 0.09 | 35 | 1013.6 |
| 20260507035713 | 50 | 38 | 0.0 | 0.0 | 0.00 | 0.09 | 0.09 | 35 | 1013.7 |
| 20260507035213 | 50 | 38 | 0.0 | 0.0 | 0.00 | 0.09 | 0.09 | 36 | 1013.7 |
| 20260507034713 | 50 | 38 | 0.0 | 0.0 | 0.00 | 0.09 | 0.09 | 36 | 1013.7 |
| 20260507034213 | 50 | 38 | 0.0 | 0.0 | 0.00 | 0.09 | 0.09 | 36 | 1013.6 |
| 20260507033713 | 51 | 38 | 0.0 | 0.0 | 0.00 | 0.09 | 0.09 | 35 | 1013.5 |
| 20260507033213 | 51 | 38 | 0.0 | 0.0 | 0.00 | 0.09 | 0.09 | 35 | 1013.5 |
| 20260507032713 | 51 | 38 | 0.0 | 0.0 | 0.00 | 0.09 | 0.09 | 35 | 1013.4 |
| 20260507032213 | 51 | 38 | 0.0 | 0.0 | 0.00 | 0.09 | 0.09 | 34 | 1013.2 |
| 20260507031714 | 52 | 38 | 0.0 | 0.0 | 0.00 | 0.09 | 0.09 | 34 | 1013.1 |
| 20260507031214 | 52 | 38 | 0.0 | 0.0 | 0.00 | 0.09 | 0.09 | 34 | 1013.1 |
| 20260507030713 | 52 | 38 | 0.0 | 0.0 | 0.00 | 0.09 | 0.09 | 35 | 1013.1 |
| 20260507030213 | 53 | 38 | 0.0 | 0.0 | 0.00 | 0.09 | 0.09 | 34 | 1013.1 |
| 20260507025714 | 53 | 38 | 0.0 | 0.0 | 0.00 | 0.09 | 0.09 | 34 | 1013.1 |
| 20260507025213 | 53 | 38 | 0.0 | 0.0 | 0.00 | 0.09 | 0.09 | 34 | 1013.1 |
| 20260507024714 | 54 | 38 | 0.0 | 0.0 | 0.00 | 0.09 | 0.09 | 32 | 1013.2 |
| 20260507024213 | 54 | 38 | 0.0 | 0.0 | 0.00 | 0.09 | 0.09 | 32 | 1013.2 |
| 20260507023714 | 55 | 38 | 0.0 | 0.0 | 0.00 | 0.09 | 0.09 | 32 | 1013.1 |
| 20260507023214 | 55 | 38 | 0.0 | 1.7 | 0.00 | 0.09 | 0.09 | 32 | 1013.1 |
| 20260507022714 | 55 | 38 | 0.0 | 0.0 | 0.00 | 0.09 | 0.09 | 30 | 1013.0 |
| 20260507022214 | 56 | 38 | 0.0 | 0.9 | 0.00 | 0.09 | 0.09 | 28 | 1013.1 |
| 20260507021714 | 56 | 38 | 0.0 | 0.9 | 0.00 | 0.09 | 0.09 | 30 | 1013.1 |
| 20260507021214 | 57 | 38 | 0.0 | 0.9 | 0.00 | 0.09 | 0.09 | 26 | 1013.0 |
| 20260507020714 | 57 | 38 | 0.0 | 1.7 | 0.00 | 0.09 | 0.09 | 26 | 1013.0 |
| 20260507020214 | 58 | 38 | 0.0 | 1.7 | 0.00 | 0.09 | 0.09 | 26 | 1013.0 |
| 20260507015714 | 58 | 38 | 0.9 | 3.5 | 0.00 | 0.09 | 0.09 | 26 | 1013.1 |
| 20260507015214 | 58 | 38 | 0.9 | 3.5 | 0.00 | 0.09 | 0.09 | 26 | 1013.1 |
| 20260507014714 | 59 | 38 | 0.0 | 2.6 | 0.00 | 0.09 | 0.09 | 25 | 1013.1 |
| 20260507014214 | 59 | 38 | 0.9 | 1.7 | 0.00 | 0.09 | 0.09 | 24 | 1013.1 |
| 20260507013714 | 60 | 38 | 1.7 | 3.5 | 0.00 | 0.09 | 0.09 | 24 | 1013.1 |
| 20260507013214 | 60 | 38 | 0.9 | 3.5 | 0.00 | 0.09 | 0.09 | 23 | 1013.1 |
| 20260507012714 | 60 | 38 | 0.9 | 3.5 | 0.00 | 0.09 | 0.09 | 23 | 1013.1 |
| 20260507012214 | 60 | 38 | 1.7 | 6.1 | 0.00 | 0.09 | 0.09 | 23 | 1013.2 |
| 20260507011714 | 61 | 37 | 1.7 | 6.1 | 0.00 | 0.09 | 0.09 | 23 | 1013.1 |
| 20260507011214 | 61 | 41 | 0.9 | 4.3 | 0.00 | 0.09 | 0.09 | 23 | 1013.2 |
| 20260507010714 | 61 | 38 | 0.9 | 3.5 | 0.00 | 0.09 | 0.09 | 24 | 1013.2 |
| 20260507010214 | 61 | 38 | 1.7 | 4.3 | 0.00 | 0.09 | 0.09 | 23 | 1013.2 |
| 20260507005714 | 61 | 39 | 1.7 | 4.3 | 0.00 | 0.09 | 0.09 | 24 | 1013.4 |
| 20260507005214 | 61 | 38 | 1.7 | 4.3 | 0.00 | 0.09 | 0.09 | 23 | 1013.3 |
| 20260507004714 | 61 | 39 | 2.6 | 4.3 | 0.00 | 0.09 | 0.09 | 23 | 1013.4 |
| 20260507004214 | 61 | 31 | 2.6 | 6.1 | 0.00 | 0.09 | 0.09 | 23 | 1013.4 |
| 20260507003714 | 61 | 29 | 2.6 | 6.1 | 0.00 | 0.09 | 0.09 | 23 | 1013.4 |
| 20260507003214 | 61 | 30 | 2.6 | 7.0 | 0.00 | 0.09 | 0.09 | 23 | 1013.3 |
| 20260507002714 | 61 | 46 | 1.7 | 5.2 | 0.00 | 0.09 | 0.09 | 24 | 1013.2 |
| 20260507002214 | 61 | 34 | 1.7 | 7.8 | 0.00 | 0.09 | 0.09 | 24 | 1013.3 |
| 20260507001714 | 61 | 28 | 2.6 | 7.0 | 0.00 | 0.09 | 0.09 | 23 | 1013.2 |
| 20260507001214 | 61 | 46 | 2.6 | 7.0 | 0.00 | 0.09 | 0.09 | 24 | 1013.3 |
| 20260507000714 | 60 | 42 | 2.6 | 7.0 | 0.00 | 0.09 | 0.09 | 24 | 1013.3 |
| 20260507000214 | 60 | 61 | 2.6 | 7.0 | 0.00 | 0.09 | 0.09 | 23 | 1013.3 |
| 20260506235714 | 60 | 71 | 3.5 | 7.8 | 0.00 | 0.09 | 0.09 | 23 | 1013.3 |
| 20260506235214 | 60 | 38 | 3.5 | 8.7 | 0.00 | 0.09 | 0.09 | 24 | 1013.3 |
| 20260506234714 | 60 | 39 | 3.5 | 7.0 | 0.00 | 0.09 | 0.09 | 23 | 1013.2 |
| 20260506234214 | 60 | 29 | 3.5 | 10.4 | 0.00 | 0.09 | 0.09 | 23 | 1013.3 |
| 20260506233714 | 60 | 47 | 3.5 | 7.0 | 0.00 | 0.09 | 0.09 | 24 | 1013.2 |
| 20260506233214 | 60 | 32 | 3.5 | 8.7 | 0.00 | 0.09 | 0.09 | 23 | 1013.2 |
| 20260506232714 | 61 | 50 | 2.6 | 7.8 | 0.00 | 0.09 | 0.09 | 23 | 1013.1 |
| 20260506232214 | 61 | 14 | 2.6 | 7.8 | 0.00 | 0.09 | 0.09 | 24 | 1013.2 |
| 20260506231714 | 61 | 62 | 2.6 | 6.1 | 0.00 | 0.09 | 0.09 | 24 | 1013.2 |
| 20260506231214 | 60 | 33 | 2.6 | 6.1 | 0.00 | 0.09 | 0.09 | 25 | 1013.2 |
| 20260506230714 | 60 | 34 | 3.5 | 7.8 | 0.00 | 0.09 | 0.09 | 24 | 1013.3 |
| 20260506230214 | 60 | 46 | 2.6 | 8.7 | 0.00 | 0.09 | 0.09 | 23 | 1013.2 |
| 20260506225714 | 60 | 64 | 3.5 | 7.0 | 0.00 | 0.09 | 0.09 | 25 | 1013.2 |
| 20260506225214 | 60 | 54 | 3.5 | 9.6 | 0.00 | 0.09 | 0.09 | 23 | 1013.2 |
| 20260506224714 | 61 | 106 | 2.6 | 11.3 | 0.00 | 0.09 | 0.09 | 24 | 1013.3 |
| 20260506224214 | 60 | 24 | 3.5 | 7.8 | 0.00 | 0.09 | 0.09 | 26 | 1013.4 |
| 20260506223714 | 60 | 57 | 3.5 | 11.3 | 0.00 | 0.09 | 0.09 | 24 | 1013.4 |
| 20260506223214 | 60 | 42 | 2.6 | 7.8 | 0.00 | 0.09 | 0.09 | 25 | 1013.4 |
| 20260506222714 | 60 | 65 | 2.6 | 9.6 | 0.00 | 0.09 | 0.09 | 26 | 1013.4 |
| 20260506222214 | 60 | 62 | 2.6 | 7.0 | 0.00 | 0.09 | 0.09 | 26 | 1013.4 |
| 20260506221714 | 60 | 31 | 2.6 | 7.8 | 0.00 | 0.09 | 0.09 | 26 | 1013.4 |
| 20260506221214 | 60 | 26 | 3.5 | 7.8 | 0.00 | 0.09 | 0.09 | 27 | 1013.5 |
| 20260506220714 | 60 | 28 | 3.5 | 8.7 | 0.00 | 0.09 | 0.09 | 27 | 1013.6 |
| 20260506220214 | 60 | 33 | 2.6 | 7.8 | 0.00 | 0.09 | 0.09 | 27 | 1013.5 |
| 20260506215714 | 60 | 28 | 3.5 | 5.2 | 0.00 | 0.09 | 0.09 | 27 | 1013.5 |
| 20260506215214 | 60 | 27 | 3.5 | 9.6 | 0.00 | 0.09 | 0.09 | 27 | 1013.7 |
| 20260506214714 | 60 | 313 | 3.5 | 10.4 | 0.00 | 0.09 | 0.09 | 27 | 1013.8 |
| 20260506214214 | 60 | 28 | 3.5 | 10.4 | 0.00 | 0.09 | 0.09 | 29 | 1013.8 |
| 20260506213714 | 60 | 34 | 2.6 | 8.7 | 0.00 | 0.09 | 0.09 | 27 | 1013.8 |
| 20260506213214 | 59 | 29 | 2.6 | 8.7 | 0.00 | 0.09 | 0.09 | 30 | 1013.9 |
| 20260506212714 | 59 | 57 | 2.6 | 7.8 | 0.00 | 0.09 | 0.09 | 27 | 1014.0 |
| 20260506212214 | 59 | 37 | 2.6 | 7.0 | 0.00 | 0.09 | 0.09 | 29 | 1014.1 |
| 20260506211714 | 59 | 33 | 2.6 | 6.1 | 0.00 | 0.09 | 0.09 | 29 | 1014.0 |
| 20260506211214 | 59 | 21 | 3.5 | 12.2 | 0.00 | 0.09 | 0.09 | 28 | 1014.0 |
| 20260506210714 | 59 | 327 | 2.6 | 9.6 | 0.00 | 0.09 | 0.09 | 29 | 1013.7 |
| 20260506210214 | 59 | 320 | 3.5 | 7.8 | 0.00 | 0.09 | 0.09 | 29 | 1014.0 |
| 20260506205714 | 59 | 35 | 3.5 | 11.3 | 0.00 | 0.09 | 0.09 | 29 | 1014.0 |
| 20260506205214 | 58 | 55 | 3.5 | 9.6 | 0.00 | 0.09 | 0.09 | 29 | 1014.0 |
| 20260506204714 | 58 | 40 | 3.5 | 7.8 | 0.00 | 0.09 | 0.09 | 28 | 1013.9 |
| 20260506204214 | 58 | 315 | 4.3 | 12.2 | 0.00 | 0.09 | 0.09 | 30 | 1013.9 |
| 20260506203714 | 58 | 53 | 3.5 | 7.8 | 0.00 | 0.09 | 0.09 | 30 | 1013.8 |
| 20260506203214 | 58 | 58 | 3.5 | 8.7 | 0.00 | 0.09 | 0.09 | 27 | 1014.0 |
| 20260506202714 | 58 | 57 | 3.5 | 12.2 | 0.00 | 0.09 | 0.09 | 30 | 1014.0 |
| 20260506202214 | 58 | 28 | 3.5 | 8.7 | 0.00 | 0.09 | 0.09 | 30 | 1014.1 |
| 20260506201714 | 58 | 326 | 3.5 | 11.3 | 0.00 | 0.09 | 0.09 | 29 | 1014.1 |
| 20260506201214 | 57 | 35 | 3.5 | 7.8 | 0.00 | 0.09 | 0.09 | 31 | 1014.1 |
| 20260506200714 | 57 | 35 | 4.3 | 8.7 | 0.00 | 0.09 | 0.09 | 28 | 1014.2 |
| 20260506200214 | 57 | 15 | 3.5 | 9.6 | 0.00 | 0.09 | 0.09 | 29 | 1014.1 |
| 20260506195714 | 57 | 22 | 3.5 | 10.4 | 0.00 | 0.09 | 0.09 | 29 | 1014.0 |
| 20260506195214 | 57 | 26 | 4.3 | 8.7 | 0.00 | 0.09 | 0.09 | 27 | 1014.0 |
| 20260506194714 | 57 | 30 | 3.5 | 8.7 | 0.00 | 0.09 | 0.09 | 28 | 1014.1 |
| 20260506194214 | 57 | 32 | 3.5 | 8.7 | 0.00 | 0.09 | 0.09 | 29 | 1014.0 |
| 20260506193714 | 56 | 48 | 3.5 | 8.7 | 0.00 | 0.09 | 0.09 | 29 | 1014.1 |